Total_Precipitation_Accumulation
1.06 1.30 1.86 2.67 3.53 2.94 2.24 1.96 1.55 1.27 1.04 0.91 0.82 0.85 1.03 1.27 1.74 2.47 2.73 2.46 1.79 1.68 2.10 2.85 3.02 2.82 2.50 2.14 2.11 2.20 2.20 2.39 2.34 2.10 1.86 1.61 1.43 1.30 1.33 1.29 1.23 1.15 1.03 1.05 1.10 1.07 1.05 1.06 1.03
1.00 1.81 2.45 3.42 3.47 2.46 2.19 1.98 1.64 1.12 0.84 0.65 0.56 0.75 0.92 0.87 1.05 1.83 2.68 2.58 1.72 1.51 1.81 2.34 2.74 2.65 2.43 2.19 2.15 2.23 2.18 2.12 2.06 1.81 1.56 1.45 1.39 1.31 1.27 1.30 1.28 1.13 1.00 0.99 1.04 1.12 1.09 1.04 1.01
1.12 2.00 2.67 3.12 2.50 2.12 2.10 1.86 1.43 0.97 0.71 0.60 0.52 0.59 0.82 1.12 1.42 2.10 2.44 1.83 1.45 1.27 1.66 2.28 2.67 2.48 2.22 2.03 2.07 2.08 2.13 2.05 1.91 1.77 1.59 1.45 1.41 1.36 1.35 1.34 1.31 1.12 0.96 0.88 0.99 1.06 1.04 0.98 0.94
1.50 2.32 2.62 2.42 1.96 1.57 1.50 1.50 1.08 0.86 0.62 0.46 0.47 0.62 0.84 1.33 1.69 2.07 2.06 1.51 1.30 1.26 1.59 1.93 2.20 2.05 1.88 1.86 1.87 1.77 1.63 1.64 1.79 1.82 1.66 1.54 1.38 1.28 1.27 1.29 1.18 0.98 0.87 0.85 0.92 0.99 0.97 0.93 0.93
1.83 2.51 2.57 2.07 1.73 1.48 1.29 1.11 0.87 0.77 0.68 0.55 0.48 0.84 1.30 1.62 1.78 1.80 1.74 1.44 1.31 1.49 1.79 1.83 1.98 1.85 1.79 1.74 1.72 1.58 1.57 1.67 1.85 1.81 1.67 1.56 1.34 1.21 1.21 1.13 0.96 0.78 0.74 0.79 0.96 1.03 0.89 0.83 0.88
2.29 2.48 2.80 2.22 1.81 1.51 1.38 1.05 0.79 0.68 0.61 0.51 0.52 0.85 1.46 1.83 1.83 1.78 1.68 1.51 1.39 1.42 1.59 1.68 1.91 1.84 1.68 1.54 1.55 1.45 1.51 1.77 1.91 1.82 1.74 1.70 1.43 1.22 1.09 1.01 0.88 0.74 0.67 0.74 0.89 0.95 0.86 0.79 0.86
2.46 2.57 2.39 1.89 1.77 1.85 1.45 0.91 0.80 0.74 0.71 0.57 0.47 0.82 1.44 1.86 1.63 1.45 1.47 1.34 1.30 1.28 1.32 1.27 1.36 1.48 1.43 1.44 1.55 1.55 1.68 1.79 1.80 1.67 1.62 1.57 1.24 1.02 0.93 0.90 0.86 0.79 0.78 0.83 0.87 0.93 0.90 0.88 0.94
1.70 1.87 1.87 1.77 1.81 1.81 1.26 0.78 0.67 0.62 0.68 0.46 0.42 0.75 1.33 1.52 1.31 1.33 1.31 1.28 1.30 1.23 1.17 1.03 1.05 1.24 1.37 1.38 1.49 1.61 1.74 1.76 1.74 1.55 1.45 1.32 1.04 0.88 0.88 0.82 0.80 0.75 0.77 0.86 0.90 0.94 0.91 0.89 0.92
1.58 1.88 2.11 1.99 1.74 1.53 1.07 0.84 0.62 0.46 0.49 0.42 0.38 0.47 0.71 0.89 1.00 1.17 1.27 1.22 1.34 1.21 1.08 1.02 0.91 0.95 1.15 1.28 1.32 1.59 1.69 1.68 1.51 1.41 1.39 1.18 0.84 0.75 0.80 0.77 0.90 0.87 0.90 0.94 0.97 0.94 0.88 0.81 0.76
1.57 1.96 1.99 1.46 1.13 1.07 0.98 0.85 0.69 0.64 0.67 0.56 0.50 0.49 0.55 0.71 0.88 0.99 1.08 1.11 1.17 1.17 0.99 0.93 0.86 0.83 0.83 0.90 1.19 1.58 1.43 1.35 1.10 1.06 1.06 1.02 0.93 0.90 0.73 0.80 1.01 1.03 1.01 0.98 0.97 0.92 0.76 0.59 0.53
1.28 1.40 1.27 1.17 0.86 0.73 0.87 0.82 0.63 0.68 0.77 0.59 0.56 0.54 0.54 0.65 0.71 0.79 0.89 0.92 0.93 1.00 0.95 0.86 0.78 0.72 0.76 0.85 0.96 1.16 1.22 1.22 1.07 0.91 0.90 0.98 0.93 0.83 0.70 0.68 0.75 0.84 0.90 0.81 0.77 0.75 0.59 0.53 0.57
1.13 1.03 0.89 0.86 0.68 0.70 0.89 0.76 0.65 0.74 0.71 0.46 0.38 0.41 0.53 0.61 0.61 0.63 0.74 0.88 0.91 0.96 0.96 0.90 0.80 0.75 0.72 0.70 0.68 0.77 0.81 0.85 0.89 0.83 0.80 0.91 0.86 0.80 0.77 0.77 0.71 0.72 0.77 0.83 0.79 0.75 0.65 0.60 0.62
1.05 0.97 0.79 0.65 0.68 0.71 0.78 0.81 0.71 0.72 0.60 0.48 0.40 0.50 0.58 0.58 0.57 0.58 0.66 0.78 0.85 0.90 0.96 0.92 0.82 0.76 0.77 0.74 0.64 0.63 0.71 0.75 0.83 0.87 0.79 0.80 0.83 0.82 0.77 0.73 0.78 0.78 0.76 0.80 0.80 0.70 0.65 0.64 0.62
0.97 0.91 0.83 0.70 0.69 0.73 0.78 0.82 0.77 0.85 0.66 0.54 0.45 0.51 0.54 0.57 0.58 0.60 0.63 0.72 0.77 0.79 0.95 0.97 0.87 0.85 0.82 0.76 0.67 0.65 0.71 0.80 0.81 0.70 0.65 0.69 0.73 0.76 0.84 0.86 0.85 0.85 0.85 0.93 0.92 0.71 0.72 0.76 0.73
0.86 0.91 0.90 0.83 0.80 0.79 0.82 1.03 0.94 0.87 0.74 0.71 0.58 0.50 0.51 0.52 0.52 0.58 0.58 0.66 0.75 0.83 0.96 0.96 0.92 1.02 0.92 0.82 0.79 0.70 0.73 0.79 0.82 0.79 0.74 0.75 0.76 0.78 0.88 0.94 0.95 0.93 0.91 0.96 1.19 1.04 0.80 0.77 0.77
1.00 1.09 1.24 0.89 0.79 0.82 0.97 1.19 0.89 0.87 0.85 0.92 0.74 0.60 0.55 0.52 0.50 0.50 0.51 0.63 0.68 0.86 0.95 1.06 0.95 1.05 1.02 0.94 0.92 0.86 0.85 0.90 0.91 0.91 0.93 0.87 0.86 0.88 0.96 1.02 0.92 0.97 1.05 1.11 1.28 1.33 1.03 0.83 0.83
1.15 1.23 1.20 0.94 0.71 0.74 0.86 0.97 0.80 0.76 0.74 0.77 0.73 0.65 0.63 0.51 0.47 0.44 0.46 0.53 0.61 0.79 0.92 1.07 1.07 1.04 1.10 1.12 1.11 1.05 1.01 1.02 1.00 0.98 0.95 0.96 0.98 1.04 1.12 1.13 1.06 1.06 1.08 1.19 1.21 1.42 1.40 1.19 1.08
1.09 0.97 0.91 0.83 0.72 0.72 0.73 0.65 0.65 0.64 0.66 0.63 0.64 0.60 0.55 0.48 0.47 0.45 0.41 0.43 0.50 0.69 0.83 0.99 1.15 1.26 1.33 1.34 1.38 1.35 1.24 1.15 1.17 1.19 1.16 1.18 1.25 1.21 1.26 1.29 1.31 1.38 1.35 1.35 1.30 1.49 1.61 1.41 1.37
0.75 0.74 0.75 0.64 0.57 0.60 0.56 0.49 0.54 0.58 0.62 0.56 0.56 0.56 0.46 0.41 0.45 0.43 0.37 0.41 0.45 0.57 0.68 0.86 1.24 1.69 1.87 1.76 1.72 1.77 1.81 1.75 1.65 1.61 1.58 1.62 1.63 1.63 1.68 1.66 1.64 1.62 1.58 1.64 1.64 1.90 2.26 1.78 1.54
0.69 0.75 0.77 0.67 0.48 0.48 0.48 0.43 0.44 0.50 0.51 0.48 0.45 0.48 0.43 0.39 0.36 0.34 0.32 0.36 0.40 0.58 0.75 0.88 1.17 1.63 1.83 1.95 2.05 2.25 2.40 2.26 2.11 2.08 2.03 2.10 2.11 2.27 2.23 2.22 2.22 2.15 2.15 2.13 2.04 2.15 2.48 2.12 1.85
0.69 0.71 0.71 0.64 0.50 0.45 0.43 0.46 0.41 0.46 0.41 0.39 0.39 0.40 0.36 0.30 0.28 0.30 0.30 0.34 0.39 0.52 0.67 0.81 1.02 1.32 1.66 1.92 2.18 2.45 2.66 2.63 2.50 2.32 2.29 2.35 2.40 2.55 2.67 2.66 2.72 2.56 2.44 2.49 2.40 2.35 2.54 2.61 2.30
0.71 0.48 0.44 0.45 0.59 0.60 0.45 0.68 0.49 0.47 0.43 0.38 0.38 0.38 0.36 0.31 0.29 0.33 0.32 0.34 0.39 0.47 0.58 0.75 0.97 1.21 1.44 1.66 2.07 2.49 2.77 2.86 2.76 2.66 2.62 2.57 2.58 2.62 2.83 2.85 2.96 2.81 2.71 2.69 2.59 2.40 2.56 2.88 2.80
0.53 0.41 0.41 0.44 0.54 0.50 0.35 0.50 0.48 0.40 0.42 0.37 0.34 0.33 0.33 0.31 0.32 0.36 0.37 0.41 0.47 0.52 0.58 0.74 0.90 1.13 1.37 1.59 1.94 2.32 2.58 2.78 2.91 2.73 2.60 2.61 2.65 2.67 2.79 2.92 3.02 2.89 2.78 2.72 2.81 2.72 2.66 2.60 2.61
0.42 0.45 0.45 0.47 0.54 0.59 0.29 0.42 0.54 0.38 0.35 0.35 0.31 0.28 0.29 0.33 0.38 0.43 0.53 0.59 0.62 0.58 0.64 0.75 0.88 1.05 1.20 1.33 1.53 1.75 2.09 2.31 2.63 2.62 2.55 2.66 2.64 2.56 2.50 2.66 2.89 2.82 2.82 2.82 2.90 2.95 2.87 2.86 2.86
0.41 0.63 0.83 0.85 0.82 0.55 0.23 0.38 0.52 0.38 0.31 0.31 0.32 0.29 0.30 0.35 0.41 0.50 0.65 0.73 0.77 0.70 0.66 0.72 0.89 0.98 1.07 1.16 1.23 1.36 1.59 1.73 2.08 2.39 2.37 2.28 2.33 2.38 2.44 2.49 2.49 2.49 2.58 2.74 2.94 2.90 2.80 2.79 2.89
0.34 0.55 0.88 1.01 0.89 0.57 0.38 0.55 0.59 0.43 0.35 0.31 0.30 0.33 0.38 0.42 0.49 0.67 0.84 0.91 0.91 0.82 0.76 0.82 0.97 1.05 1.09 1.12 1.13 1.20 1.29 1.35 1.51 1.72 1.83 1.84 1.88 2.11 2.23 2.34 2.31 2.32 2.40 2.50 2.63 2.64 2.67 2.63 2.61
0.30 0.37 0.43 0.62 0.59 0.63 0.60 0.67 0.60 0.40 0.38 0.38 0.40 0.45 0.56 0.65 0.70 0.83 0.99 1.08 1.00 0.89 0.82 0.88 1.00 1.15 1.16 1.18 1.22 1.29 1.27 1.22 1.30 1.31 1.44 1.61 1.64 1.70 1.84 1.94 2.04 2.17 2.22 2.31 2.48 2.52 2.52 2.53 2.52
0.22 0.29 0.45 0.67 0.86 0.89 0.73 0.73 0.71 0.59 0.54 0.50 0.54 0.60 0.72 0.83 0.91 1.00 1.14 1.19 1.07 0.94 0.86 0.91 1.02 1.14 1.33 1.45 1.38 1.34 1.38 1.39 1.58 1.60 1.45 1.40 1.55 1.61 1.65 1.71 1.79 1.95 2.06 2.15 2.23 2.33 2.45 2.44 2.43
0.27 0.37 0.52 0.70 0.72 1.00 1.12 1.02 0.80 0.72 0.71 0.73 0.78 0.82 0.88 1.01 1.02 1.01 1.12 1.20 1.10 0.92 0.86 0.85 0.91 1.02 1.16 1.19 1.23 1.20 1.27 1.36 1.61 1.82 1.77 1.57 1.53 1.54 1.53 1.50 1.57 1.72 1.85 1.96 2.08 2.13 2.13 2.13 2.26
0.36 0.47 0.68 1.05 0.99 0.91 1.11 1.10 0.78 0.71 0.75 0.76 0.77 0.76 0.80 0.91 0.91 0.96 1.02 0.98 0.90 0.78 0.71 0.71 0.73 0.84 0.99 0.99 1.05 1.12 1.13 1.23 1.34 1.46 1.49 1.41 1.29 1.25 1.31 1.36 1.36 1.44 1.65 1.79 1.81 1.84 1.84 1.88 1.97